Regional Weather Roundup
Issued by NWS Northern Indiana

Home | Current Version | Previous Version | Text Only | Print | Product List | Glossary On
Versions: 1 2 3 4 5 6 7 8 9 10 11 12 13 14 15 16 17 18 19 20 21 22 23 24 25 26 27 28 29 30 31 32 33 34 35 36 37 38 39 40 41 42 43 44 45 46 47 48 49 50
078
ASUS43 KIWX 270310
RWRIWX

KIWX WEATHER ROUNDUP
NATIONAL WEATHER SERVICE NORTHERN INDIANA
1100 PM EDT SAT MAY 26 2018

NOTE: "FAIR" INDICATES FEW OR NO CLOUDS BELOW 12,000 FEET WITH NO
SIGNIFICANT WEATHER AND/OR OBSTRUCTIONS TO VISIBILITY.

* THESE STATIONS ARE NOT UNDER NWS QUALITY CONTROL. THEY ALSO MAY NOT
  REPORT WEATHER SUCH AS PRECIPITATION OR FOG.

INZ001>027-270400-
NORTHERN INDIANA

CITY           SKY/WX    TMP DP  RH WIND       PRES   REMARKS
GARY*          PTCLDY    72  64  78 CALM      29.81R
LAPORTE*       FAIR      71  64  78 CALM      29.83R
KNOX*          FAIR      72  63  73 CALM      29.82R
SOUTH BEND     FAIR      70  61  73 CALM      29.83R
GOSHEN         FAIR      71  61  70 CALM      29.83R
ROCHESTER*     FAIR      73  64  73 CALM      29.85R
WARSAW*        FAIR      68  59  73 CALM      29.84R
AUBURN*        FAIR      70  68  94 CALM      29.85R
FORT WAYNE     FAIR      75  67  76 S5        29.84R
PERU/GRISSOM   FAIR      73  70  89 CALM      29.83R
MARION*        FAIR      73  65  76 CALM      29.84R

$$
INZ028>050-270400-
CENTRAL INDIANA

CITY           SKY/WX    TMP DP  RH WIND       PRES   REMARKS
LAFAYETTE      FAIR      73  69  87 CALM      29.81R
KOKOMO*        FAIR      76  66  71 CALM      29.85R
MUNCIE*        FAIR      76  64  66 CALM      29.84R
INDIANAPOLIS   FAIR      75  66  73 S8        29.84R

$$
MIZ043>046-050>051-056>058-064>065-071>073-077>080-270400-
SOUTHWEST LOWER MICHIGAN

CITY           SKY/WX    TMP DP  RH WIND       PRES   REMARKS
BATTLE CREEK   FAIR      72  61  68 CALM      29.84R
BENTON HARBOR  FAIR      66  60  81 CALM      29.81R
COLDWATER*     FAIR      71  60  69 CALM      29.84R
HILLSDALE*     FAIR      68  63  83 SE5       29.85R
HOLLAND        FAIR      67  61  81 CALM      29.82R
GRAND RAPIDS   FAIR      68  61  78 SE5       29.83R
KALAMAZOO      FAIR      71  59  65 CALM      29.83R
STURGIS*       FAIR      71  62  74 CALM      29.83R
THREE RIVERS*  FAIR      69  59  70 CALM      29.83R

$$
OHZ001>008-015>018-024>025-270400-
NORTHWEST OHIO

CITY           SKY/WX    TMP DP  RH WIND       PRES   REMARKS
DEFIANCE       FAIR      72  67  84 SE3       29.84R
FINDLAY        FAIR      73  69  87 SE6       29.85R
TOLEDO EXPRESS FAIR      71  70  96 S3        29.84R
TOLEDO METCALF FAIR      71  67  87 SE7       29.85R
LIMA           FAIR      69  69 100 E5        29.86R

$$
AND FOR LAKE MICHIGAN COASTAL AND OPEN LAKE BUOY OBSERVATIONS

STATION/POSITION TEMP    WIND        PRES    VSBY  WAVE
                 AIR SEA DIR/SP/G                  HT/PER
                 (F)     (DEG/KT/KT) (MB)    (MI)  (FT/S)
CALUMET HARBOR    72     100/  3/  6 1008.8R
MICHIGAN CITY     78     110/  7/  8   N/A
BURNS HARBOR      74      CALM  /  3 1009.8R
SAINT JOSEPH      74      CALM  /  1 1010.5
SOUTH LAKE BUOY   54 41  150/  8/ 10 1009.2R         0
4 MI NW BRIDGMAN  71 67  130/  4/  4 1009.2          0
MICHIGAN CITY     70 65  130/  4/  6   N/A           0

$$
&&




USA.gov is the U.S. government's official web portal to all federal, state and local government web resources and services.